Wind_Speed
5 5 5 5 5 5 5 4 4 3 3 3 3 3 2 2 2 2 2 2 2 2 2 1 2 2 2 4 5 7 8 8 8 8 8 8 7 7 6 7 8 8 7 6 7 7 7 6 6 6 5 5 5 4 5 6 6 6 7 7 8 8 9 10 11 12 13 13 13
7 7 7 7 7 7 7 6 5 4 4 4 4 4 3 3 3 3 3 2 2 2 1 1 1 1 2 3 5 6 7 6 7 7 7 6 6 7 8 9 9 8 7 7 7 7 6 6 6 6 6 5 5 5 5 5 5 5 6 6 7 8 8 9 9 9 9 10 10
8 7 7 7 7 7 6 6 6 6 6 6 6 5 4 4 4 4 4 3 3 3 2 2 2 2 2 3 3 4 4 4 5 5 6 7 9 11 11 10 9 8 8 7 7 6 6 6 6 6 6 6 5 5 5 5 5 5 6 6 7 7 7 7 6 7 7 8 8
7 6 6 6 5 5 5 5 6 6 6 6 6 6 6 5 5 5 5 4 4 3 3 3 3 3 3 3 3 3 3 4 5 7 9 11 12 12 11 9 8 8 7 7 6 6 6 6 6 6 6 6 5 5 5 4 4 4 5 5 5 5 4 4 4 5 5 6 7
7 7 7 7 6 6 6 6 6 6 6 6 6 6 6 6 6 6 6 5 5 4 4 4 4 4 4 4 4 4 5 7 8 10 12 13 12 10 9 7 6 6 5 5 4 4 4 4 4 5 5 5 4 4 3 2 2 2 2 2 2 2 2 3 3 4 4 5 6
7 7 7 7 6 6 6 6 6 6 6 6 6 7 7 6 6 6 6 6 6 5 5 4 4 5 5 6 6 7 8 9 10 11 11 11 10 8 6 5 5 4 3 3 2 2 2 1 1 2 2 3 4 3 2 1 1 0 0 0 1 1 2 3 3 4 4 5 5
7 7 7 6 6 6 6 5 5 6 6 6 7 7 7 7 7 6 6 6 6 6 6 6 6 6 7 7 8 9 10 11 11 10 9 8 7 6 4 4 3 2 2 2 2 2 2 2 1 1 2 2 3 3 2 2 2 2 2 2 2 3 3 3 3 4 4 4 4
6 6 6 6 6 6 6 6 5 6 6 7 7 8 8 8 7 7 7 7 8 8 8 8 8 8 8 9 9 9 9 10 9 7 6 5 4 3 2 2 2 2 2 2 2 3 3 2 1 2 2 2 3 3 3 3 2 2 2 3 3 3 3 3 4 4 4 4 4
6 6 6 6 6 6 6 6 6 6 6 7 7 8 8 7 7 7 7 8 8 8 9 9 9 9 8 9 8 8 7 6 5 4 2 1 1 2 2 3 2 2 2 2 3 3 3 2 2 2 3 3 3 3 4 3 3 2 3 3 3 3 4 4 4 5 5 5 6
7 7 7 7 7 7 6 7 6 6 6 7 7 7 7 7 6 6 6 6 6 7 8 8 7 7 7 7 7 6 5 4 2 0 2 3 3 3 3 3 3 3 2 2 2 3 3 2 3 3 4 4 4 4 4 4 3 3 3 3 4 4 4 5 5 6 6 6 7
7 7 7 7 7 7 6 6 6 6 6 6 6 6 6 6 6 6 5 5 5 5 6 5 4 4 3 3 3 3 2 2 1 2 2 2 2 1 1 2 2 2 3 3 3 3 3 3 3 4 5 5 5 5 4 4 3 3 3 4 5 5 6 6 6 6 7 7 7
7 7 7 7 7 6 6 6 6 6 6 6 6 6 6 6 6 5 5 4 4 4 4 3 2 1 1 0 0 0 1 2 2 2 2 1 1 1 3 4 4 4 4 5 4 4 4 4 4 5 5 5 5 4 4 3 3 4 5 5 6 6 6 6 6 7 7 7 7
6 6 6 6 6 5 5 5 5 5 5 5 5 5 5 6 5 4 4 3 3 3 3 3 2 2 3 3 2 2 1 1 1 0 0 1 2 3 3 3 3 4 4 5 4 4 4 4 5 5 5 5 4 4 4 3 4 5 6 7 6 6 6 7 7 7 7 6 7
5 5 5 5 5 4 4 5 5 5 5 5 5 4 5 5 4 3 2 2 2 2 2 2 3 3 4 4 4 4 4 3 3 2 2 2 2 2 2 2 2 3 4 4 4 4 4 4 4 4 4 4 4 4 4 4 4 5 6 6 6 7 7 7 7 7 7 7 7
5 5 4 4 4 3 4 4 4 4 4 4 4 4 4 3 3 2 1 1 2 2 2 3 4 5 5 5 5 5 5 4 3 3 3 3 3 3 2 2 2 3 3 4 4 3 3 4 4 4 4 5 5 5 4 4 5 5 6 6 6 7 7 7 7 7 7 7 7
4 4 4 3 3 3 3 3 4 3 3 4 4 4 4 4 3 2 2 3 3 3 3 4 4 5 5 5 5 5 4 4 3 3 3 3 2 2 2 2 2 2 3 4 4 4 4 4 4 5 5 6 6 5 5 5 6 6 6 6 6 6 7 7 7 7 7 7 6
4 4 4 3 3 3 3 4 3 3 3 4 4 4 4 4 3 4 4 5 5 5 5 3 3 3 4 4 4 4 4 4 3 2 1 1 2 2 3 2 2 3 4 5 4 4 5 5 5 6 6 7 7 6 6 6 6 6 6 6 6 6 7 7 7 7 6 6 6
4 4 4 4 4 4 4 4 4 4 4 4 4 4 4 3 4 4 5 6 5 5 4 3 3 4 4 4 3 3 3 2 2 2 3 3 3 4 4 4 4 5 6 5 5 5 6 7 7 7 7 8 7 7 7 7 7 6 6 6 6 7 7 7 7 6 6 6 6
5 5 5 5 4 4 4 4 3 3 3 3 3 3 3 4 4 4 4 4 4 4 4 4 4 4 4 4 3 2 1 2 4 5 6 6 6 6 7 7 7 7 6 6 6 7 8 9 9 8 8 7 7 7 7 6 6 6 6 6 6 7 7 7 7 7 7 7 7
6 6 5 5 4 4 4 3 3 3 3 3 3 4 4 4 4 4 4 4 4 4 4 5 5 5 5 5 5 4 4 4 6 7 8 8 8 9 9 9 8 8 7 7 8 9 9 9 8 7 7 7 7 7 6 6 6 6 6 7 7 8 8 7 7 7 7 7 7
6 6 5 4 4 4 3 3 3 3 2 2 3 4 4 5 5 5 6 6 5 5 6 6 6 6 6 5 5 5 6 7 8 9 10 10 10 10 10 9 9 8 9 9 9 9 9 8 8 7 7 7 7 7 7 7 7 7 7 8 8 8 8 8 8 7 7 8 8
6 5 4 3 3 3 2 2 2 2 2 3 4 4 5 6 6 7 7 7 6 6 6 7 7 6 6 5 5 6 8 10 11 11 12 12 12 11 10 10 10 11 11 11 10 10 9 9 8 8 7 7 8 8 8 7 7 8 8 8 8 8 8 8 8 8 8 8 8
5 4 3 3 2 2 2 2 2 3 3 4 5 6 6 7 8 8 8 7 6 6 7 7 6 6 6 6 6 8 10 12 13 13 13 13 13 12 11 11 11 12 12 12 11 10 10 10 9 8 8 8 9 9 8 8 8 8 8 9 9 8 8 8 7 7 8 8 8
5 4 4 4 4 4 4 4 4 4 5 5 6 6 7 8 8 7 7 6 6 6 6 7 7 7 8 9 10 11 13 14 14 14 14 14 14 14 13 13 13 13 13 12 11 10 9 9 9 8 8 8 8 8 8 8 8 8 8 8 8 8 8 8 7 6 6 6 7
6 6 6 6 6 6 6 6 6 6 6 6 7 7 7 7 7 7 6 7 7 8 9 10 10 11 12 13 14 14 15 15 15 15 15 15 15 15 15 15 15 14 13 12 10 9 9 8 8 7 7 8 8 8 8 7 7 7 8 8 8 8 8 8 7 6 5 5 5
8 8 8 8 8 8 8 8 8 8 8 8 8 8 8 8 8 9 10 11 12 12 13 14 14 14 15 16 16 16 16 16 16 16 16 16 15 15 15 15 15 14 13 12 10 9 9 7 7 7 7 7 7 7 7 7 7 7 7 7 7 7 7 7 7 6 5 4 4
10 10 10 9 9 10 10 9 9 9 9 9 10 10 10 11 12 13 14 15 16 16 16 16 16 16 16 16 16 16 16 16 17 16 16 16 15 15 15 15 14 13 12 11 11 10 9 7 6 6 6 6 6 6 6 7 6 6 6 6 6 6 6 6 6 5 4 4 3
11 11 10 10 10 10 10 9 9 9 10 10 11 12 13 14 15 16 16 17 17 17 16 16 16 16 16 16 15 15 16 16 16 16 16 16 16 16 15 14 13 12 12 11 10 10 9 8 7 6 6 5 5 5 6 6 6 6 6 6 6 6 6 6 5 5 4 3 3
11 11 11 11 11 10 10 10 10 10 10 11 13 14 15 15 16 16 16 16 16 16 15 15 15 15 15 15 15 15 16 16 16 16 16 16 16 15 15 14 13 12 11 11 10 10 9 8 7 6 6 6 5 5 6 6 6 7 7 7 7 7 7 7 6 6 6 5 4
11 11 11 11 11 11 10 10 10 10 11 12 14 14 15 15 15 15 15 15 15 15 15 15 15 15 15 15 15 16 16 16 16 16 16 16 16 15 14 13 13 12 11 10 10 9 9 8 8 7 7 6 6 6 7 7 7 8 8 9 9 9 8 8 8 8 7 7 6
11 11 12 12 12 11 11 10 11 11 12 13 14 14 14 14 14 14 14 14 15 14 14 14 15 15 15 15 15 16 16 16 16 16 16 16 15 14 14 13 12 11 11 10 9 9 9 8 8 8 8 7 7 7 8 8 9 9 10 10 9 9 9 8 8 8 7 7 7
12 12 12 13 13 12 12 12 12 13 13 14 14 14 14 14 14 14 14 14 14 14 13 13 14 14 14 14 15 16 16 16 15 15 15 14 14 13 13 12 11 11 10 10 9 9 9 9 9 9 8 8 8 8 8 9 9 10 10 10 9 9 8 7 7 7 7 7 6
13 13 13 13 13 13 13 13 14 14 14 14 14 14 14 15 15 14 14 14 13 13 13 13 13 14 14 14 15 15 15 15 15 14 14 14 14 13 12 12 11 10 10 9 9 9 10 10 9 9 9 8 8 8 9 9 10 10 10 10 9 8 8 7 7 7 6 6 6
14 14 14 14 14 14 14 14 14 15 15 15 15 15 15 15 15 14 13 13 12 12 12 12 13 13 14 14 14 15 15 14 14 14 14 14 13 13 13 12 11 10 10 10 10 10 10 10 10 9 9 9 9 9 9 10 10 10 10 10 9 9 8 7 7 6 6 6 5
14 14 14 14 14 14 14 14 15 15 16 16 15 15 15 14 14 13 12 12 11 11 11 11 11 12 13 13 14 14 14 14 13 13 13 13 13 13 13 12 11 10 10 10 11 11 11 10 10 10 10 10 10 10 10 10 10 10 10 10 10 10 9 8 8 7 6 6 5
13 14 14 14 14 14 15 15 15 16 16 16 15 15 14 13 12 11 11 10 10 10 10 10 10 10 11 11 12 12 12 12 12 12 12 12 12 13 13 13 12 11 11 12 12 12 11 11 11 10 10 10 10 10 10 10 11 11 11 11 11 11 10 10 9 8 7 7 6
13 13 13 14 14 15 15 15 15 16 16 16 15 14 13 12 11 10 9 9 9 9 9 9 9 9 10 10 10 10 10 10 11 11 11 11 12 13 14 14 13 12 12 12 12 12 12 11 11 10 10 10 10 10 10 10 10 10 11 11 11 10 10 10 9 9 8 8 8
12 12 13 14 14 15 15 15 15 16 16 15 14 13 12 11 11 10 9 8 8 9 9 9 9 9 10 10 11 11 11 11 11 12 13 13 13 14 14 13 13 12 10 10 10 10 10 10 10 9 9 9 9 10 10 10 10 10 10 10 10 9 9 9 9 8 8 8 8
12 12 13 14 14 14 15 15 15 15 14 14 13 11 11 10 10 9 9 8 8 9 9 10 11 11 11 12 12 12 13 13 13 13 13 13 13 12 12 12 11 11 9 8 7 7 7 7 8 8 8 8 9 9 9 9 9 9 9 9 8 8 8 7 7 7 7 7 8
12 13 13 13 13 14 14 14 14 13 13 12 11 10 9 9 9 9 9 9 9 10 10 11 12 13 13 13 13 13 14 14 14 14 13 13 12 11 11 10 10 10 8 7 6 6 6 6 6 6 7 7 7 7 7 7 8 8 8 8 7 6 6 6 5 5 6 6 6
12 12 12 12 12 13 13 14 13 12 11 10 10 9 9 9 9 9 9 10 10 10 11 12 13 13 14 13 13 14 14 14 13 13 12 12 11 11 10 9 9 9 8 7 6 6 5 5 5 5 6 5 5 5 5 5 6 7 7 7 6 5 5 4 4 4 4 4 5
Wind_Direction
116 123 134 147 155 161 166 174 184 193 199 199 195 195 194 182 166 164 175 186 187 183 185 196 197 186 174 172 177 189 198 204 210 218 228 240 247 248 236 215 203 199 198 196 193 186 179 173 169 168 169 175 182 196 212 224 236 247 258 268 275 279 281 282 285 289 292 294 294
104 106 111 119 128 137 143 144 148 155 161 165 166 167 166 160 152 147 147 156 172 185 195 203 216 204 176 167 177 191 203 213 220 228 232 231 218 201 190 182 179 176 173 168 164 160 156 153 153 154 158 165 174 187 200 212 225 239 253 263 268 272 276 282 288 293 297 299 299
98 100 104 110 117 125 129 128 126 129 133 137 143 149 151 146 141 133 130 131 147 165 177 180 195 212 223 218 209 206 208 213 217 215 204 189 177 173 171 170 168 164 160 156 152 149 147 148 150 155 161 169 179 190 199 208 221 235 246 255 259 263 269 276 284 291 297 300 302
95 95 96 99 103 107 112 117 121 123 126 127 131 135 137 134 130 128 128 132 136 138 141 149 162 175 192 208 204 189 179 179 182 179 174 168 165 163 163 162 159 155 151 148 146 145 146 149 154 159 164 171 179 186 193 202 219 232 240 244 249 256 267 276 286 294 300 305 309
90 87 85 85 88 91 96 101 107 113 117 123 127 129 129 128 125 125 125 126 124 123 127 138 149 158 167 174 169 160 155 157 160 162 162 160 158 156 155 154 150 144 140 136 135 136 142 150 157 156 154 154 158 163 169 184 200 215 221 229 235 262 288 299 308 312 315 318 320
85 84 84 84 86 90 93 96 99 102 106 112 116 118 119 120 121 123 121 118 116 117 120 126 138 145 150 153 151 149 149 151 152 153 152 150 147 145 143 142 139 133 126 118 115 114 114 120 130 131 128 125 127 133 141 152 129 104 55 42 26 9 348 335 334 331 329 327 326
88 88 89 91 94 96 99 101 103 105 107 107 107 106 106 108 112 115 117 119 121 122 122 124 129 138 147 150 148 147 148 149 148 147 144 140 136 132 127 121 121 117 103 87 72 64 55 44 44 67 94 107 109 104 89 69 54 36 25 30 30 28 21 5 356 347 340 334 332
98 97 97 99 103 106 108 110 111 112 110 108 104 102 101 103 106 111 115 119 120 122 125 127 130 137 146 149 147 145 146 148 147 144 140 132 122 111 94 78 73 69 65 54 50 51 50 44 47 73 88 90 90 84 77 71 59 43 37 38 39 39 36 25 16 8 358 352 354
110 108 108 110 113 115 116 117 115 112 110 108 106 104 102 104 106 111 114 115 118 123 127 129 132 139 146 148 146 145 146 148 144 138 125 88 32 16 13 15 23 31 34 32 45 54 56 54 66 87 93 92 90 89 85 82 71 61 53 49 47 44 40 33 29 24 17 14 21
117 117 118 119 119 120 122 121 117 113 110 110 109 108 107 108 109 109 109 110 119 126 129 130 137 146 153 156 155 152 150 158 165 266 330 325 326 332 345 2 18 22 20 26 48 62 68 73 88 97 102 101 99 95 92 89 77 70 65 60 53 49 43 39 37 33 29 28 33
123 123 123 122 121 123 124 120 117 114 112 111 111 111 110 110 107 104 104 113 124 125 124 126 138 153 167 176 170 166 174 207 274 309 319 321 323 344 32 55 62 71 80 86 86 88 94 101 102 104 107 108 107 101 95 92 84 76 71 65 60 56 53 49 45 40 35 33 36
125 126 126 125 125 127 127 121 116 113 112 112 111 111 111 108 104 102 109 122 123 116 110 109 109 111 104 74 68 252 264 281 294 300 303 317 22 69 82 85 87 96 104 105 104 108 113 111 109 105 105 107 109 104 95 89 82 76 73 70 68 66 64 60 54 47 40 37 39
123 125 126 127 130 132 128 122 117 113 110 108 107 105 104 104 104 108 116 121 113 102 94 92 83 63 52 45 33 21 11 343 309 285 85 80 74 74 76 76 81 96 105 109 108 111 114 111 107 102 99 103 104 102 93 84 78 75 75 74 76 77 74 67 60 53 47 43 43
121 121 122 125 130 131 128 122 116 110 105 103 98 95 93 98 103 110 113 104 89 82 82 88 82 70 64 62 65 75 82 85 86 80 56 34 23 20 25 37 57 78 89 96 97 102 107 107 106 103 101 101 98 94 90 85 80 78 77 76 77 77 74 69 63 57 51 49 48
117 114 113 116 123 125 122 114 107 103 99 96 89 84 82 86 79 65 56 69 65 70 83 92 85 79 75 75 79 82 82 80 72 49 17 356 347 346 354 10 37 54 63 69 75 82 90 94 100 104 104 100 95 91 88 86 84 82 78 72 68 67 66 63 59 54 50 47 47
106 103 99 100 102 103 99 94 92 90 89 89 82 77 76 73 64 61 71 81 86 97 101 93 82 81 84 86 84 80 73 64 50 32 15 7 18 33 36 27 27 44 55 62 69 75 80 85 90 95 96 95 92 88 84 82 80 76 71 65 59 58 57 55 52 49 47 44 46
94 87 82 78 76 74 74 74 75 78 81 82 80 79 76 71 77 87 92 92 97 102 102 90 90 96 99 94 82 67 54 46 42 36 34 55 84 93 95 93 82 74 73 74 77 82 85 84 84 85 86 86 84 80 75 72 69 66 63 59 58 57 57 55 53 49 48 47 50
84 77 71 66 64 64 64 66 67 70 74 78 81 80 80 85 96 99 97 95 98 103 108 110 113 112 107 97 78 52 34 39 84 113 122 125 121 114 108 102 95 90 88 89 89 87 81 76 71 71 74 75 74 69 65 63 63 62 61 61 63 65 65 63 60 55 53 54 57
84 77 71 66 62 60 59 57 58 60 64 67 76 86 97 106 109 110 108 107 108 110 113 116 116 114 110 106 105 102 108 119 121 120 119 116 110 101 94 90 88 88 89 92 90 85 78 71 64 61 61 64 66 64 62 63 66 69 70 72 74 74 73 70 66 61 59 59 61
88 82 75 67 61 55 49 44 43 46 54 67 88 103 110 114 119 123 124 122 119 117 114 112 112 109 108 109 113 116 118 119 117 112 107 101 94 88 86 84 84 82 79 76 74 73 72 69 65 60 59 61 66 69 71 72 76 79 81 81 81 80 78 74 70 68 65 64 64
89 83 75 65 53 45 38 34 36 45 64 90 107 114 116 118 119 120 121 121 121 119 114 109 105 102 100 100 103 106 109 109 107 102 96 90 85 82 81 80 79 75 71 67 65 66 67 68 67 66 65 68 72 75 76 80 84 85 86 86 86 86 84 82 81 79 78 76 73
92 86 76 62 50 40 36 40 49 73 104 114 115 116 117 116 112 112 114 117 119 115 108 102 96 93 92 92 98 105 108 105 101 96 91 87 83 81 80 78 76 72 69 66 65 67 70 72 70 68 68 72 75 76 77 80 84 87 89 91 93 94 94 93 93 93 92 90 85
103 99 92 86 81 82 89 100 106 110 111 110 111 112 112 110 108 108 110 114 115 109 103 98 94 92 94 97 104 107 107 103 99 95 92 89 86 83 81 79 75 71 67 63 61 63 67 71 73 71 70 72 77 79 81 82 84 89 94 97 100 101 101 101 100 99 99 98 96
124 124 121 120 117 115 113 110 105 99 96 99 104 108 108 107 106 107 110 113 113 109 105 103 101 101 103 105 107 107 106 103 100 97 95 92 88 85 82 78 75 71 67 63 59 58 60 66 72 74 75 77 82 86 88 90 92 96 101 105 107 106 105 103 101 100 100 100 100
136 134 131 127 123 118 114 108 100 94 92 95 100 103 105 105 106 108 109 108 106 103 103 102 102 104 105 106 106 106 104 101 98 95 91 87 84 81 78 74 71 68 67 65 63 60 60 64 69 74 78 83 88 93 97 99 101 104 107 109 110 110 109 107 104 102 100 100 100
140 137 133 129 125 121 114 108 101 98 97 99 101 102 103 105 106 107 106 103 101 100 100 100 102 104 106 106 105 103 101 98 95 93 90 88 85 81 78 74 72 69 69 70 69 67 66 67 71 75 79 84 90 97 102 105 105 106 107 108 108 110 111 112 112 111 108 104 102
140 138 135 132 128 122 116 110 104 101 102 105 106 107 107 108 109 108 106 105 103 102 102 102 103 104 106 108 106 104 102 100 99 98 97 95 92 87 83 80 77 76 76 77 77 76 75 72 74 77 81 82 86 94 100 104 105 104 105 105 106 107 109 109 110 109 106 101 95
140 138 137 134 129 124 119 113 108 108 110 114 114 114 114 114 112 111 109 108 108 107 107 106 107 108 109 108 107 106 105 104 103 101 99 96 93 89 86 84 81 80 80 81 81 82 80 79 79 81 83 83 82 86 92 99 102 103 102 101 101 100 99 97 95 90 85 78 72
141 140 138 134 130 126 122 117 115 116 119 121 120 119 118 117 115 113 112 112 112 111 111 111 111 111 109 108 108 108 107 104 102 100 97 95 92 90 88 87 85 82 81 82 84 84 84 84 84 86 87 85 83 84 88 92 96 96 95 92 90 88 87 85 84 81 79 76 73
143 141 139 134 131 127 124 121 122 124 126 124 123 122 120 119 118 117 117 116 115 115 116 117 116 112 110 109 108 106 102 99 96 95 93 92 91 90 90 88 87 85 84 84 86 87 87 87 85 85 85 85 84 84 87 90 92 92 91 89 88 88 88 88 88 87 86 84 83
143 141 138 134 131 128 126 126 128 130 129 127 126 125 124 122 120 120 121 120 119 121 123 123 118 114 112 112 108 103 98 95 93 93 92 92 91 91 92 91 89 87 85 85 87 88 88 87 85 83 84 87 88 90 93 96 96 95 95 95 94 94 94 95 95 95 94 93 93
143 141 137 133 130 129 129 131 133 132 131 130 129 128 126 124 123 123 124 124 124 124 123 119 116 113 112 110 106 101 97 96 95 95 95 95 95 95 94 93 90 88 86 86 87 88 88 88 86 86 89 93 96 98 100 101 100 99 99 98 97 96 96 97 97 97 96 96 94
143 141 137 134 132 132 134 136 136 134 133 132 131 130 128 126 125 125 125 125 124 122 119 116 114 112 109 107 104 101 100 99 98 97 97 97 97 97 96 94 91 88 87 87 89 90 90 90 90 93 96 99 101 102 103 102 101 100 99 97 95 94 94 94 93 93 92 90 89
144 142 139 136 136 137 138 139 137 134 133 132 131 130 129 127 126 125 125 126 127 125 122 121 119 117 115 113 110 108 106 105 105 104 103 103 103 102 100 97 94 91 90 91 92 92 93 93 95 98 100 101 102 102 102 102 100 98 95 92 91 90 88 87 86 84 83 79 77
146 143 141 139 140 141 141 138 136 133 131 129 129 129 129 128 127 127 128 130 131 130 127 126 126 125 123 122 120 117 115 113 113 114 114 115 113 109 104 99 95 93 92 93 94 93 94 95 98 100 102 102 102 102 101 100 96 93 89 86 84 82 81 79 78 75 72 68 61
150 147 144 143 143 143 141 138 134 132 130 129 129 129 129 130 130 132 136 139 137 132 129 128 128 126 125 124 123 121 120 120 120 121 121 121 116 110 104 99 96 94 93 93 93 93 94 95 97 98 100 100 100 98 96 92 88 85 83 80 78 76 75 74 73 71 68 64 56
154 153 150 148 146 144 142 139 136 133 131 131 131 132 133 133 135 139 144 146 140 135 132 129 128 127 126 124 122 121 121 121 121 120 118 114 109 105 102 101 100 98 96 94 93 93 92 92 92 93 93 92 90 87 85 82 80 78 76 74 72 71 71 70 70 70 69 66 60
160 158 155 152 148 145 143 142 139 136 134 135 136 138 140 140 142 145 148 148 141 135 131 128 125 122 119 118 118 117 118 119 119 117 114 110 107 105 105 106 106 104 101 97 94 91 89 87 85 83 81 78 76 75 74 74 74 72 71 70 69 68 67 67 67 69 70 69 65
163 161 159 155 150 147 145 144 142 141 140 140 142 144 146 147 148 150 150 145 137 131 128 124 120 117 116 116 118 119 120 121 120 118 116 114 111 110 108 108 107 106 105 102 99 95 91 87 81 75 71 69 67 67 68 70 72 72 71 69 68 66 65 63 62 64 66 69 69
164 162 161 159 154 150 148 146 146 147 148 148 147 149 152 153 154 154 150 141 133 128 125 123 121 120 121 122 123 125 125 125 124 123 120 118 116 113 110 107 105 105 104 104 104 103 101 97 83 72 69 68 65 64 64 69 74 76 75 71 69 67 65 61 57 55 56 59 62
163 162 162 160 157 153 150 149 150 153 155 154 153 154 157 158 159 155 147 137 132 129 126 125 125 127 128 130 131 131 130 129 128 126 124 122 121 119 116 112 109 106 104 103 101 103 104 103 86 72 69 67 63 58 57 63 73 77 76 71 67 64 61 58 53 46 41 39 41
Height
793 793 793 793 793 793 793 793 793 793 793 793 793 793 793 792 792 792 792 792 792 792 792 792 793 793 794 795 796 797 798 798 798 798 799 798 798 799 800 801 802 803 802 802 802 803 803 803 804 804 805 805 805 806 806 807 807 808 808 809 809 809 809 810 810 810 810 810 810
793 793 793 793 793 792 792 792 792 792 792 792 792 792 792 792 792 792 792 792 792 792 792 792 792 793 794 794 795 795 796 796 796 796 796 797 797 799 800 801 802 802 801 802 802 802 803 803 803 804 804 804 805 805 806 806 807 807 807 808 808 808 808 809 809 809 809 809 809
793 793 793 793 793 792 792 792 792 792 792 792 792 792 792 792 792 792 791 791 791 792 792 792 792 793 793 794 794 794 794 794 795 795 795 796 798 799 800 801 801 801 801 801 801 802 802 802 803 803 803 804 804 805 805 805 805 806 806 807 807 807 807 807 807 807 808 808 808
793 793 793 793 793 793 792 792 792 792 792 792 792 792 792 792 792 792 791 791 791 791 792 792 792 793 794 794 794 794 794 794 795 795 796 797 798 799 800 800 800 800 800 800 800 801 801 801 802 802 803 803 804 804 804 805 805 805 805 806 806 806 806 806 806 806 806 806 806
793 793 793 793 793 793 793 793 793 792 792 792 792 792 792 792 792 792 792 792 792 792 792 792 793 793 794 794 794 794 794 795 795 796 797 798 798 799 799 800 799 799 800 800 800 800 800 800 801 801 802 802 803 803 803 803 804 804 804 805 805 805 805 805 805 805 805 805 805
794 794 794 793 793 793 793 793 793 793 792 792 792 792 792 792 792 792 792 792 792 792 793 793 793 793 794 794 794 794 795 796 796 797 797 798 798 798 798 798 798 799 799 799 799 799 800 800 800 800 801 801 802 802 802 802 803 803 803 804 804 804 804 804 804 804 804 804 805
794 794 794 794 794 794 793 793 793 793 793 793 793 792 792 792 792 792 792 793 793 793 793 793 794 794 794 794 794 795 795 796 797 797 797 797 797 797 798 798 798 798 798 798 798 799 799 799 800 800 800 801 801 801 801 802 802 802 802 802 803 803 803 803 803 803 803 803 804
794 794 794 794 794 794 794 794 793 793 793 793 793 793 793 793 793 793 793 793 793 793 794 794 794 794 794 794 795 795 796 796 796 796 797 797 797 797 797 797 797 797 797 798 798 798 798 799 799 799 800 800 800 800 801 801 801 801 801 802 802 802 802 802 803 803 803 803 803
794 794 794 794 794 794 794 794 794 793 793 793 793 793 793 793 793 793 793 793 794 794 794 794 794 794 795 795 795 795 795 796 796 796 796 796 796 796 796 797 797 797 797 797 798 798 798 798 799 799 799 800 800 800 800 800 801 801 801 801 801 801 802 802 802 802 802 802 802
794 794 794 794 794 794 794 794 794 794 794 793 794 794 794 794 794 794 794 794 794 794 794 794 795 795 795 795 795 795 795 796 796 796 796 796 796 796 796 796 796 797 797 797 797 798 798 798 798 798 799 799 799 799 800 800 800 800 800 800 800 801 801 801 802 802 802 802 802
794 794 794 794 794 794 794 794 794 794 794 794 794 794 794 794 794 794 794 794 794 794 794 795 795 795 795 795 795 795 795 796 796 796 796 796 796 796 796 797 797 797 797 797 797 797 798 798 798 798 798 798 799 799 799 799 799 800 800 800 800 800 801 801 801 801 801 802 802
794 794 794 794 794 794 794 794 794 794 794 794 794 794 794 794 794 794 794 794 794 794 795 795 795 795 795 795 795 795 796 796 796 796 796 796 796 796 796 797 797 797 797 797 797 797 797 797 797 797 798 798 798 798 799 799 799 799 799 800 800 800 800 801 801 801 801 801 802
794 794 794 794 794 794 794 794 794 794 794 794 794 794 794 794 795 795 795 795 795 795 795 795 795 795 795 795 795 795 796 796 796 796 796 796 796 797 797 797 797 797 797 797 797 797 797 797 797 797 797 798 798 798 798 798 799 799 799 799 800 800 800 800 800 801 801 801 801
795 795 794 794 794 794 794 794 794 794 794 794 794 795 795 795 795 795 795 795 795 795 795 795 795 795 795 795 796 796 796 796 796 797 797 797 797 797 797 797 797 797 797 797 797 797 797 797 797 797 797 798 798 798 798 798 798 799 799 799 799 800 800 800 800 801 801 801 801
795 795 795 795 794 794 794 794 794 794 795 795 795 795 795 795 795 795 795 795 795 795 795 795 796 796 796 796 796 797 797 797 797 797 797 797 797 797 797 797 797 797 797 797 797 797 797 797 797 797 797 797 798 798 798 798 799 799 799 799 799 800 800 800 801 801 801 801 801
795 795 795 795 795 795 795 795 795 795 795 795 795 795 795 795 795 795 795 795 795 795 796 796 796 796 796 797 797 797 797 797 797 798 798 798 798 797 797 797 797 797 797 797 797 797 797 797 797 797 798 798 798 798 798 798 799 799 799 800 800 800 800 801 801 801 801 801 801
795 795 795 795 795 795 795 795 795 795 795 795 795 795 795 795 795 795 795 795 796 796 796 796 797 797 797 797 797 797 797 797 797 797 798 798 797 797 797 797 797 797 797 797 797 797 797 797 798 798 798 798 798 798 799 799 799 799 800 800 800 800 801 801 801 801 802 802 802
795 795 795 795 795 795 795 795 795 795 795 795 795 795 795 796 796 796 796 796 796 796 796 797 797 797 797 797 797 797 797 797 797 797 797 797 797 797 797 797 797 797 798 798 798 798 798 798 798 798 798 798 799 799 799 799 800 800 800 801 801 801 801 801 802 802 802 802 802
796 796 796 795 795 795 795 796 796 796 796 796 796 796 796 796 796 796 796 797 797 797 797 797 797 797 797 797 797 797 797 797 797 797 797 797 797 797 797 798 798 798 798 798 798 798 798 799 799 799 799 799 799 799 800 800 800 801 801 801 801 802 802 802 802 803 803 803 803
796 796 796 796 796 796 796 796 796 796 796 796 796 796 796 797 797 797 797 797 797 797 797 797 797 797 797 797 797 797 797 797 797 797 798 798 798 798 798 798 798 798 799 799 799 799 799 799 800 800 800 800 800 800 800 801 801 801 802 802 802 802 802 803 803 803 804 804 804
797 797 796 796 796 796 796 796 796 796 796 797 797 797 797 797 797 797 797 797 798 798 798 798 798 798 798 798 798 798 798 798 798 798 799 799 799 799 799 799 799 799 800 800 800 800 800 800 800 800 800 800 800 801 801 801 802 802 802 803 803 803 803 804 804 804 805 805 805
797 797 797 797 797 797 797 797 797 797 797 797 797 797 797 797 798 798 798 798 798 798 798 798 798 798 798 798 798 799 799 799 799 799 800 800 800 800 800 800 800 800 800 800 800 801 801 801 800 801 801 801 801 802 802 802 803 803 803 803 804 804 804 804 805 805 805 805 806
798 798 797 797 797 797 797 797 797 797 797 797 798 798 798 798 798 799 799 799 799 798 798 799 799 799 799 799 799 800 800 800 800 800 800 800 800 801 801 801 801 801 801 801 801 801 801 801 801 801 802 802 802 803 803 804 804 804 804 804 805 805 805 805 805 805 806 806 806
798 798 798 798 798 798 797 797 797 798 798 798 798 798 799 799 799 799 799 799 799 799 799 799 800 800 800 800 800 800 801 801 801 801 801 801 801 802 802 802 802 802 802 802 802 802 802 802 802 803 803 803 803 804 804 805 805 805 805 805 805 805 805 806 806 806 807 807 807
798 798 798 798 798 798 798 798 798 798 798 799 799 799 799 800 800 800 800 800 800 800 800 800 800 801 801 801 801 802 802 802 802 802 802 802 803 803 803 803 802 802 802 803 803 803 803 803 804 804 804 804 804 805 805 805 806 806 806 806 806 806 806 807 807 807 808 808 808
799 798 798 798 798 798 798 798 798 799 799 799 799 800 800 800 800 800 800 800 801 801 801 801 802 802 802 802 803 803 803 803 803 803 804 804 804 804 804 804 804 804 804 804 805 805 805 805 805 805 805 805 805 806 806 806 807 807 807 807 807 807 807 808 808 809 809 809 809
799 799 799 799 799 799 799 799 799 799 800 800 800 800 800 801 801 801 801 802 802 802 803 803 803 803 803 803 804 804 804 804 804 805 805 805 805 805 805 805 805 805 805 806 806 806 806 806 806 806 806 806 807 807 807 807 808 808 808 808 808 808 808 809 809 810 810 810 810
799 799 799 799 799 800 800 800 800 800 800 800 801 801 801 802 802 802 803 803 803 804 804 804 804 804 804 804 805 805 805 805 805 805 805 805 805 805 805 805 806 806 807 807 807 808 807 807 807 807 807 808 808 808 808 808 808 808 809 809 809 809 809 810 810 810 810 810 810
799 799 800 800 800 800 800 800 800 801 801 801 802 802 802 803 803 803 804 804 804 805 805 805 805 805 805 805 805 805 806 806 806 806 806 806 806 806 806 806 807 808 808 809 809 809 809 808 808 808 808 809 809 809 809 809 809 809 809 809 810 810 810 810 810 810 810 810 810
800 800 800 800 800 800 800 801 801 801 802 802 802 803 803 803 804 804 804 805 805 805 805 805 805 805 806 806 806 806 806 806 806 806 806 806 807 807 807 808 808 809 810 810 810 810 810 809 809 809 809 810 810 810 810 810 810 810 810 810 810 810 810 811 811 811 811 811 811
800 800 800 800 801 801 801 801 802 802 803 803 803 803 804 804 804 805 805 805 805 806 806 806 806 806 806 806 806 807 807 807 807 807 807 807 808 808 809 809 810 810 811 811 811 810 810 810 810 810 810 810 810 810 810 810 810 810 810 810 811 811 811 811 811 811 811 811 811
800 800 801 801 801 801 802 802 803 803 803 803 804 804 804 805 805 805 806 806 806 806 806 806 807 807 807 807 807 807 808 808 808 808 808 808 809 810 810 811 811 811 812 812 811 811 811 811 811 811 811 811 811 811 811 811 811 811 811 811 811 811 811 811 811 811 811 811 811
801 801 801 801 802 802 802 803 803 803 803 804 804 804 805 805 806 806 806 807 807 807 807 807 807 808 808 808 808 808 809 809 809 809 809 810 810 811 811 812 812 813 813 813 812 812 812 812 812 812 812 812 812 812 812 812 812 812 812 812 812 812 812 812 812 812 812 812 812
801 801 802 802 802 803 803 803 803 803 804 804 805 805 805 806 806 806 807 807 807 807 808 808 808 808 808 809 809 809 809 810 810 810 810 811 812 812 812 813 813 813 813 813 813 813 813 812 812 813 813 813 813 812 812 812 812 812 812 812 812 812 812 812 812 812 812 812 812
801 802 802 802 803 803 803 803 803 804 804 805 805 805 806 806 807 807 807 808 808 808 808 808 809 809 809 809 810 810 810 810 810 811 812 812 813 813 813 813 814 814 814 814 814 814 814 813 813 813 813 813 813 813 813 813 813 813 813 813 813 813 813 813 813 813 813 813 813
802 802 802 803 803 803 803 803 804 804 804 805 805 806 806 807 807 807 808 808 808 808 809 809 809 810 810 810 810 810 811 811 812 812 813 813 813 814 814 814 815 815 815 815 815 815 815 814 814 814 814 814 814 814 814 814 813 813 813 813 813 813 813 813 813 813 813 813 813
802 802 802 803 803 803 803 804 804 804 805 805 806 806 806 807 807 808 808 808 809 809 809 810 810 810 810 811 811 811 812 812 813 814 814 814 814 815 815 815 815 816 816 816 815 815 815 815 815 815 815 815 815 814 814 814 814 814 814 814 814 814 814 814 814 814 814 814 814
802 802 803 803 803 803 804 804 804 805 805 805 806 806 807 807 808 808 809 809 809 810 810 810 810 811 811 812 812 813 813 814 814 815 815 815 815 815 815 816 816 816 817 817 816 816 816 816 816 816 815 815 815 815 815 815 815 814 814 814 814 814 814 814 814 814 814 814 814
802 802 803 803 803 803 804 804 805 805 805 806 806 807 808 808 808 809 809 810 810 810 810 811 811 812 812 813 813 814 814 815 815 815 816 816 816 816 816 816 816 817 817 817 817 817 817 816 816 816 816 816 815 815 815 815 815 815 815 815 815 815 815 815 815 815 814 814 814
802 803 803 803 803 804 804 804 805 805 806 806 807 808 808 809 809 810 810 810 811 811 811 811 812 812 813 814 814 815 815 815 816 816 817 817 817 817 817 817 817 817 818 818 818 818 817 817 817 816 816 816 816 816 815 815 815 815 815 815 815 815 815 815 815 815 815 815 815
802 803 803 803 804 804 804 805 805 806 806 807 808 808 809 809 810 810 810 811 811 812 812 812 813 813 814 815 815 815 816 816 817 817 817 817 817 818 818 818 818 818 818 818 818 818 818 817 817 817 817 816 816 816 816 816 815 815 815 815 815 815 815 815 815 815 815 815 815